GFSCGP_prec_cloud_162.txt.gz
Cloud_Cover
76 100 22 20 79 100 75 60 15 89 100 100 98 68 0 100 76 0 0 0 0 0 0 0 0 0 5 100 55 88 100 76 100 89 85 75 42 31 6 0 0 0 0 0
100 100 54 100 55 83 100 34 27 10 53 100 100 99 29 14 20 99 1 0 0 0 0 0 0 0 0 1 64 0 82 100 99 26 39 93 4 4 0 2 0 0 0 1
95 75 100 100 79 99 76 83 90 10 5 12 43 9 3 14 12 33 69 0 0 0 0 0 0 0 0 0 1 87 50 99 100 100 67 93 9 7 2 0 0 3 8 13
90 99 96 98 31 99 91 84 92 74 80 7 98 18 18 5 1 4 76 5 0 0 0 0 0 0 0 0 0 74 100 100 84 60 25 87 97 81 69 82 86 58 100 98
54 89 93 98 99 99 84 65 84 97 15 37 25 100 18 88 68 2 67 26 0 0 0 0 0 0 0 0 0 0 32 100 86 100 100 98 100 12 100 87 100 66 100 100
48 87 92 69 100 100 100 55 99 100 100 95 100 100 0 2 8 39 6 2 0 4 0 0 0 0 0 0 0 0 9 31 100 91 84 69 100 100 100 100 100 100 100 99
100 99 100 100 100 100 100 99 88 78 99 37 91 100 59 50 0 28 82 5 4 0 0 0 0 0 0 2 0 5 23 2 100 6 48 100 100 100 100 100 100 100 100 93
92 98 96 94 100 100 100 99 100 100 100 79 95 100 70 9 1 9 100 43 5 0 0 0 0 0 0 1 2 0 41 37 10 5 5 14 100 100 100 100 100 78 92 100
92 94 100 100 100 100 100 100 100 100 98 72 100 16 22 82 94 90 100 91 54 0 0 0 0 0 0 8 3 7 45 4 24 29 46 6 5 6 91 97 97 45 40 74
100 81 100 100 100 100 100 100 97 100 96 100 76 71 73 85 100 100 100 100 85 0 0 0 0 0 0 0 8 15 64 98 5 15 33 8 6 50 9 80 7 25 69 16
100 100 100 100 100 100 99 100 100 67 96 87 84 46 89 56 100 100 100 100 100 15 0 0 0 0 0 5 8 99 55 48 76 54 17 32 98 100 100 33 0 6 13 98
100 100 100 100 100 96 100 100 100 100 100 100 100 99 99 96 100 100 100 100 100 1 0 0 0 0 2 0 46 100 73 98 100 100 67 100 94 100 98 61 27 3 0 6
100 100 96 100 100 100 100 98 100 100 100 98 97 100 100 40 100 100 100 100 100 95 13 5 5 0 0 12 42 100 100 100 100 100 100 100 100 85 37 44 0 0 0 0
100 100 99 94 83 100 100 100 100 100 100 70 100 100 100 88 100 100 100 100 100 100 100 93 11 0 94 100 100 100 100 100 100 100 100 100 100 86 83 2 0 0 0 0
100 100 100 96 100 100 97 100 100 97 79 95 82 100 100 80 72 100 97 100 100 100 100 88 5 38 100 100 100 100 100 100 100 100 100 100 100 96 19 5 1 0 0 0
100 100 100 100 78 100 100 96 100 100 100 100 77 97 100 69 91 97 100 97 100 100 74 100 100 56 100 100 100 100 100 100 100 100 100 100 100 100 100 63 3 0 0 0
100 100 100 46 72 100 100 100 100 100 100 92 71 100 100 92 100 43 100 14 94 93 100 100 100 100 100 100 100 100 100 100 100 100 100 100 100 100 100 37 5 0 0 0
100 100 100 65 90 100 96 80 100 93 98 100 64 100 6 100 91 78 100 100 100 100 100 100 100 100 100 100 100 100 100 100 100 100 100 100 100 100 98 6 0 0 1 0
100 100 100 100 100 94 98 96 100 100 100 100 100 55 67 94 64 89 98 98 100 100 100 100 100 100 100 100 100 100 100 100 100 100 92 19 7 5 0 0 1 0 21 1
100 100 100 100 100 99 100 90 100 100 100 100 100 99 96 32 48 72 100 100 100 100 100 100 100 100 100 100 100 100 64 62 49 38 21 22 5 0 1 5 5 5 5 5
100 100 100 99 100 98 100 100 100 100 100 100 100 98 100 99 66 91 100 100 100 100 100 100 100 100 100 100 100 70 46 42 79 48 59 10 2 5 5 5 5 5 5 5
100 100 100 100 100 98 98 100 100 100 100 100 100 100 100 100 100 100 100 100 100 100 100 100 100 100 100 100 99 54 17 76 78 23 5 5 5 5 5 30 44 60 26 82
100 100 100 100 100 89 100 100 100 100 100 100 100 100 100 100 100 100 100 100 100 100 100 100 100 100 100 100 99 99 28 43 5 5 7 20 39 68 100 83 41 90 82 99
100 100 100 100 100 100 100 100 100 100 100 100 100 100 100 100 100 100 100 100 100 100 100 100 100 100 100 100 100 100 100 100 84 79 75 73 97 80 38 93 100 100 100 100
100 100 100 100 100 100 100 100 100 100 100 100 100 100 100 100 100 100 100 100 100 100 100 100 100 100 100 100 100 100 100 100 100 100 69 76 82 100 100 100 100 100 100 100
100 100 100 100 100 100 100 100 100 100 100 100 100 100 100 100 100 100 100 100 100 100 100 100 100 100 100 100 100 100 100 100 100 100 100 100 100 100 100 100 100 100 100 100

GFSCGP_prec_cloud_165.txt.gz
Cloud_Cover
26 100 54 5 5 5 100 54 4 5 44 90 29 26 0 0 2 0 0 0 1 0 0 0 0 0 0 0 2 100 100 100 40 100 100 100 100 100 100 55 0 0 0 0
43 78 16 93 99 88 75 43 8 4 0 2 4 22 33 7 24 58 2 0 4 0 0 0 0 0 0 0 0 0 67 100 100 100 100 97 100 100 100 57 0 0 0 0
42 7 32 64 91 28 45 67 4 4 0 0 4 14 4 89 85 4 1 0 0 0 0 0 0 0 0 0 0 0 4 79 100 100 100 82 100 64 13 1 2 7 4 0
3 5 45 81 22 99 100 15 22 5 5 5 58 1 0 0 11 58 0 1 0 0 0 0 0 0 0 0 0 0 0 0 31 55 42 98 94 100 100 98 91 58 5 5
2 9 98 95 41 86 100 100 55 27 39 7 99 41 7 100 4 0 0 0 2 0 0 0 0 0 0 0 0 0 0 0 0 0 0 76 100 100 100 100 100 100 91 57
95 100 100 100 98 93 92 90 97 80 17 77 96 74 4 29 0 0 0 0 0 0 0 0 0 0 0 0 0 0 0 0 0 0 0 67 100 100 100 100 45 11 67 100
26 43 67 100 100 100 100 100 96 96 97 100 86 8 90 100 95 5 0 0 4 0 0 0 0 0 0 0 0 0 0 0 0 0 7 75 100 100 100 100 66 100 100 100
5 96 100 100 100 100 100 100 100 80 43 76 78 26 5 14 76 5 5 0 83 47 20 0 5 0 0 0 0 0 6 0 0 0 49 16 82 100 100 100 100 100 100 100
90 100 100 100 100 100 100 100 100 100 100 90 99 69 9 55 87 100 3 0 83 100 100 2 9 13 0 0 0 0 17 0 0 0 0 14 56 25 100 99 100 100 100 100
87 99 100 100 100 100 100 100 100 100 100 100 75 24 86 98 97 25 4 32 100 100 100 11 100 87 0 0 0 0 0 0 0 0 22 7 8 25 99 100 82 93 100 100
98 96 88 86 100 100 100 100 100 100 82 93 92 96 100 100 65 90 100 18 100 100 100 56 100 24 0 0 15 9 13 0 0 20 23 44 35 99 100 91 15 22 80 100
100 100 100 91 100 97 99 100 100 100 97 100 100 100 100 99 99 100 100 7 100 99 100 49 100 0 0 0 15 28 0 4 10 15 88 97 100 100 100 98 38 69 100 100
100 100 100 100 100 100 100 100 100 100 100 100 100 100 100 100 96 100 97 12 96 92 20 2 0 0 0 0 7 5 0 69 70 100 100 100 100 100 100 100 100 100 100 100
100 100 100 100 100 100 100 97 100 100 100 98 100 62 100 100 100 100 100 100 100 94 52 0 1 0 0 0 2 4 16 71 100 100 100 100 100 100 100 100 100 100 100 98
100 100 100 100 100 90 96 60 71 100 100 100 74 27 100 54 100 100 100 100 100 56 26 0 15 5 0 6 89 99 100 100 100 100 100 100 100 100 100 100 100 100 74 19
100 100 100 100 95 100 100 100 100 100 100 100 72 85 49 88 70 100 100 100 94 80 2 98 55 100 99 100 100 100 100 100 100 100 100 100 100 100 100 100 100 90 5 44
100 100 100 100 97 100 100 100 100 100 75 100 86 50 95 76 86 97 100 100 80 5 17 100 100 100 100 100 100 100 100 100 100 100 100 100 100 100 100 100 100 74 22 96
100 100 100 100 68 98 100 93 77 100 100 99 9 9 96 12 100 100 100 82 5 100 96 98 98 100 100 100 100 100 100 100 100 100 100 100 100 100 100 100 100 100 100 100
100 100 100 100 100 97 100 84 100 100 99 100 58 21 17 27 52 97 100 53 99 100 100 100 97 100 100 100 100 100 100 100 100 100 100 100 100 100 100 100 100 100 90 11
100 100 100 100 100 100 100 100 100 100 100 100 100 93 100 92 88 100 100 6 65 100 100 100 100 100 100 100 100 100 100 100 100 100 100 100 100 100 100 100 100 100 29 100
100 100 100 100 100 100 100 100 100 100 100 100 100 100 100 100 78 97 100 93 100 100 100 100 100 100 100 100 100 100 100 100 100 100 100 100 100 100 100 100 100 100 100 100
100 82 100 100 100 100 100 100 100 100 100 100 100 100 100 100 100 100 100 100 100 100 100 100 100 100 100 100 100 100 100 100 100 100 100 100 100 100 100 100 100 100 100 100
100 100 100 100 100 100 100 100 100 100 100 100 100 100 100 100 100 100 100 100 100 100 100 100 100 100 100 100 100 100 100 100 100 100 100 100 100 100 100 100 100 100 100 100
100 100 100 100 96 96 98 100 100 100 100 100 100 100 100 100 100 100 100 100 100 100 100 100 100 100 100 100 100 100 100 100 100 100 100 100 100 100 100 100 100 100 83 61
100 100 100 100 100 99 77 100 100 100 100 100 100 100 100 100 100 100 100 100 100 100 100 100 100 100 100 100 100 100 100 100 100 100 100 100 100 100 100 100 100 93 56 2
100 100 100 100 100 100 100 100 100 100 100 100 100 100 100 100 100 100 100 100 100 100 100 100 100 100 100 100 100 100 100 100 100 100 100 100 100 100 100 73 14 4 0 1

GFSCGP_prec_cloud_168.txt.gz
Cloud_Cover
0 1 4 0 3 5 6 5 5 4 23 66 5 69 5 0 0 0 0 0 36 69 0 0 0 0 2 0 0 0 7 100 100 100 100 100 100 100 100 100 100 100 100 100
0 0 0 12 16 75 35 38 2 0 5 84 67 10 0 0 0 0 0 0 0 79 36 0 0 0 0 1 0 42 0 100 100 100 100 100 100 100 100 100 100 100 100 100
5 0 0 3 10 99 60 62 60 37 8 42 15 0 0 0 0 0 0 0 0 0 97 43 1 2 0 1 0 0 0 52 100 100 100 100 100 100 100 100 100 100 100 100
2 0 0 10 5 14 7 8 58 88 48 60 4 3 0 0 0 0 0 0 0 0 1 100 34 84 0 0 0 0 0 0 15 100 100 100 100 100 100 100 100 100 100 100
0 1 5 99 61 8 5 10 7 59 9 88 56 43 16 93 0 0 0 0 0 0 0 80 8 100 0 0 0 0 0 0 2 100 87 100 100 100 100 100 100 100 100 100
0 0 3 5 38 5 66 91 100 69 38 83 100 5 1 11 2 0 0 0 0 0 0 9 100 100 0 0 0 0 0 0 0 100 100 100 100 100 100 100 100 100 100 100
0 0 39 71 68 100 100 100 94 53 20 32 100 2 92 100 4 1 11 2 0 0 0 0 98 100 0 0 0 0 0 0 20 100 100 100 100 100 100 100 100 100 100 100
67 100 100 99 66 72 99 100 100 100 57 7 14 12 100 20 4 4 0 3 0 0 0 0 23 100 0 0 0 0 0 0 88 84 100 100 100 100 100 100 100 100 100 100
94 97 53 92 30 59 66 100 98 100 99 100 87 10 5 4 0 5 0 0 0 0 0 0 0 35 0 0 0 0 0 47 30 0 20 99 100 100 100 100 100 100 100 100
44 100 54 58 97 100 95 100 100 100 100 96 5 5 100 17 5 5 47 5 4 1 0 0 0 0 0 0 0 0 13 63 44 15 0 8 58 99 100 100 100 100 100 100
82 100 89 100 99 100 100 100 100 100 100 83 56 10 34 52 85 97 24 41 28 5 0 0 96 69 0 0 0 9 55 87 100 10 3 1 58 100 100 100 84 100 100 100
100 100 99 100 100 100 100 100 100 100 90 100 91 75 100 93 100 61 100 78 5 99 1 18 100 100 0 0 0 19 88 100 97 54 47 92 100 100 100 58 98 100 100 100
98 100 100 73 100 100 100 100 100 100 100 100 89 92 100 100 100 100 64 97 53 12 1 92 100 58 0 0 1 61 100 100 100 98 91 100 100 100 100 100 100 100 100 100
100 100 89 91 97 100 97 100 100 100 100 64 10 99 100 100 96 69 43 95 100 44 78 100 5 4 2 4 0 13 67 100 100 100 100 100 100 100 100 100 100 100 100 100
100 100 100 100 100 100 100 94 95 100 42 100 92 100 100 100 6 23 100 100 97 12 100 76 93 5 74 7 22 5 89 100 100 100 100 100 100 100 100 100 100 100 100 100
100 100 100 100 100 100 100 100 100 100 100 100 100 100 98 18 100 100 100 97 89 61 100 31 3 41 97 5 61 42 100 100 100 100 100 100 100 100 100 100 100 100 100 100
100 100 100 100 100 27 100 100 100 100 90 100 100 99 100 100 100 100 100 100 26 49 10 84 94 96 96 73 97 100 100 100 100 100 100 100 100 100 100 100 100 100 100 100
100 100 100 100 54 49 100 100 100 100 100 100 100 100 100 100 100 100 100 100 95 89 50 99 100 100 100 100 100 100 100 100 100 100 100 100 100 100 100 100 100 100 100 100
100 100 100 100 98 11 91 95 100 100 100 100 100 100 100 100 100 100 100 100 100 96 100 100 100 100 100 100 100 100 100 100 100 100 100 100 100 100 100 100 100 100 100 100
100 100 97 100 100 78 100 100 70 100 100 99 100 100 100 100 100 100 100 100 100 100 100 100 100 100 100 100 100 100 100 100 100 100 100 100 100 100 100 100 100 100 100 100
100 100 100 100 100 100 100 75 12 91 99 100 100 100 100 100 84 72 100 100 92 100 99 100 100 100 100 100 100 100 100 100 100 100 100 100 100 100 100 100 100 100 100 100
100 100 99 100 100 95 100 91 98 100 100 100 100 100 100 100 100 100 100 100 100 100 100 100 100 100 100 100 100 100 100 100 100 100 100 100 100 100 100 100 100 100 100 100
100 100 100 99 100 74 75 100 100 100 100 100 100 100 100 100 100 100 100 100 100 100 100 100 100 100 100 100 100 100 100 100 100 100 100 100 100 100 100 100 100 100 100 100
100 100 100 100 100 54 100 100 100 100 100 100 100 100 100 100 100 100 100 100 100 100 100 100 100 100 100 100 100 100 100 100 100 100 100 100 100 100 100 100 100 100 100 100
100 100 100 100 100 93 99 90 100 100 100 100 100 100 100 100 100 100 100 100 100 100 100 100 100 100 100 100 100 100 100 100 100 100 100 100 100 100 100 100 100 100 100 100
100 100 100 100 100 100 100 100 100 100 100 100 100 100 100 100 100 100 100 100 100 100 100 100 100 100 100 100 100 100 100 100 100 100 100 100 100 100 100 100 100 100 100 100

GFSCGP_prec_cloud_171.txt.gz
Cloud_Cover
0 0 0 0 0 5 5 5 5 0 0 0 0 0 0 0 0 0 0 0 0 0 0 100 100 8 3 17 100 100 100 100 100 100 100 96 97 33 100 100 21 100 89 100
0 0 2 5 0 0 0 5 0 0 0 0 0 0 0 0 0 0 0 0 0 4 0 5 4 2 11 46 82 100 100 100 100 100 100 98 61 88 99 82 100 100 100 100
5 3 5 5 1 0 0 3 5 5 1 0 0 0 0 0 0 0 0 0 0 2 64 62 2 0 5 40 50 54 100 100 100 82 7 24 96 99 89 72 100 100 100 100
5 5 0 0 0 2 5 40 5 5 5 5 2 16 62 0 0 0 0 0 0 0 100 100 42 2 15 14 0 19 4 5 2 0 0 4 98 96 98 89 100 100 100 100
5 0 0 0 4 2 0 1 5 31 15 7 33 10 0 10 0 0 0 0 0 0 68 100 100 4 1 0 2 0 0 0 0 0 0 0 78 100 100 100 100 100 100 100
2 0 0 1 5 5 7 5 5 5 47 80 89 6 96 4 0 0 0 0 0 0 0 100 100 98 5 0 2 2 0 0 4 1 0 0 82 100 100 100 100 100 100 100
0 0 5 5 5 5 42 100 73 40 95 38 44 15 4 92 11 0 0 0 0 0 0 63 100 100 88 5 0 13 0 0 20 11 25 0 47 100 100 100 100 100 100 100
92 9 2 4 46 54 96 49 96 95 87 47 75 31 0 100 40 0 0 0 0 0 0 0 98 100 80 28 5 5 15 0 12 0 9 23 31 100 100 100 100 100 100 100
39 94 100 60 14 28 74 98 100 99 83 100 14 27 5 100 100 0 5 0 0 0 0 0 0 30 100 15 7 3 22 0 2 0 0 21 37 100 100 100 100 100 100 100
5 84 100 100 48 70 10 89 94 100 100 95 7 5 5 100 100 25 22 1 0 0 0 0 0 0 82 92 16 15 0 9 1 0 4 45 78 18 100 100 100 100 100 100
61 80 100 15 99 86 97 99 100 100 100 98 74 92 100 100 90 43 68 5 0 18 1 0 0 0 38 100 25 77 11 62 77 0 29 35 100 97 96 100 100 100 100 100
67 99 100 78 89 52 63 93 100 100 77 100 97 46 100 25 40 100 2 89 11 0 5 3 0 0 3 100 84 5 49 40 100 100 100 100 100 100 100 100 100 100 100 100
98 100 100 96 93 100 100 99 100 100 100 98 100 88 100 100 90 99 38 4 43 2 46 26 0 0 0 61 100 37 27 53 100 100 100 100 100 100 100 100 100 100 100 100
100 100 100 100 100 100 100 100 100 100 100 93 100 43 99 98 20 33 20 34 22 6 3 0 0 0 0 28 100 8 87 100 100 100 100 100 100 100 100 100 100 100 100 100
94 100 100 100 100 100 100 100 100 100 100 100 100 100 98 100 79 5 5 16 11 30 74 4 1 0 0 10 98 8 97 100 100 100 100 100 100 100 100 100 100 100 100 100
100 100 100 100 100 99 99 42 100 100 100 100 98 100 100 100 96 46 74 100 100 100 98 14 5 0 44 92 30 40 100 100 100 100 100 100 100 100 100 100 100 100 100 100
100 100 99 93 88 20 81 100 86 90 100 100 100 100 100 100 100 100 100 100 100 100 100 100 32 28 100 100 20 97 100 100 100 100 100 100 100 100 100 100 100 100 100 100
100 100 99 98 87 57 91 98 82 100 100 100 100 100 100 100 100 100 100 100 100 100 95 97 57 98 55 98 97 100 100 100 100 100 100 100 100 100 100 100 100 100 100 100
100 100 100 100 100 75 98 100 100 100 100 100 100 100 100 100 100 100 100 100 100 100 100 100 100 100 100 100 100 100 100 100 100 100 100 100 100 100 100 100 100 100 100 100
91 86 100 100 100 100 100 100 100 93 100 100 100 100 100 100 100 100 100 100 100 99 100 100 100 100 100 100 100 100 100 100 100 100 100 100 100 100 100 100 100 100 100 100
100 100 75 100 99 68 99 98 94 100 86 100 100 100 100 100 100 100 100 100 88 94 100 100 100 100 100 100 100 100 100 100 100 100 100 100 100 100 100 100 100 100 100 100
100 100 99 96 92 97 100 94 100 100 100 100 100 100 100 100 100 100 100 100 100 100 100 100 100 100 100 100 100 100 100 100 100 100 100 100 100 100 100 100 100 100 100 100
100 100 100 100 60 94 93 100 100 100 100 100 100 100 100 100 100 100 100 100 100 100 100 100 100 100 100 100 100 100 100 100 100 100 100 100 100 100 100 100 100 100 100 100
100 100 100 100 99 100 5 99 100 100 100 100 100 100 100 100 100 100 100 100 100 100 100 100 100 100 100 100 100 100 100 100 100 100 100 100 100 100 100 100 100 100 100 100
100 100 100 98 96 100 83 96 100 100 100 100 100 100 100 100 100 100 100 100 100 100 100 100 100 100 100 100 100 100 100 100 100 100 100 100 100 100 100 100 100 100 100 100
100 100 100 59 99 100 100 100 100 100 100 100 100 100 100 100 100 100 100 100 100 100 100 100 100 100 100 100 100 100 100 100 100 100 100 100 100 100 100 100 100 100 100 100